User: anonymous   Login
Location: Theydon Bois
(51.6750°N, 0.1050°E)
Time: 22:15:04
(UTC+01:00)
Language:

SL-08 R/B - Orbit

View from above orbital plane
View from above orbital plane
View from above satellite
View from above satellite

Ground track
Ground track

The orbit data is extracted from the following two-line orbital elements,

1 27819U 03023B   18111.19185924  .00000028  00000-0  14378-4 0  9993
2 27819  82.9475 157.0542 0044913 284.9417 132.4530 13.74207136746171
Epoch (UTC): 21 April 2018 04:36:16
Eccentricity: 0.0044913
inclination: 82.9475°
perigee height: 951 km
apogee height: 1017 km
right ascension of ascending node: 157.0542°
argument of perigee: 284.9417°
revolutions per day: 13.74207136
mean anomaly at epoch: 132.4530°
orbit number at epoch: 74617

The dashed part of the orbit path shows where the satellite is in the earth's shadow,  

DLR